Skip Page Navigation
NASA JPL Caltech
NASA Logo - Jet Propulsion Laboratory + View the NASA Portal
+ Center for Near-Earth Object Studies
JPL Home Earth Solar System Stars & Galaxies Technology
JPL Solar System Dynamics
BODIES ORBITS EPHEMERIDES TOOLS PHYSICAL DATA DISCOVERY FAQ SITE MAP
JPL Small-Body Database Browser
Search: [ help ]  
344105 (1999 TD150)
Classification: Main-belt Asteroid          SPK-ID: 2344105
Ephemeris | Orbit Diagram | Orbital Elements | Mission Design | Physical Parameters | Discovery Circumstances ]

[ show orbit diagram ]
Orbital Elements at Epoch 2459000.5 (2020-May-31.0) TDB
Reference: JPL 11 (heliocentric ecliptic J2000)
 Element Value Uncertainty (1-sigma)   Units 
e .1774723579901271 7.3176e-08  
a 2.624988493678132 2.3818e-08 au
q 2.159125596008122 1.9359e-07 au
i 13.16573633338542 7.8823e-06 deg
node 182.9448077376321 2.5265e-05 deg
peri 185.4094106503507 2.9888e-05 deg
M 315.8580214518315 1.7257e-05 deg
tp 2459190.975370749683
(2020-Dec-07.47537075)
7.5761e-05 TDB
period 1553.422291550886
4.25
2.1142e-05
5.788e-08
d
yr
n .2317463847133207 3.1541e-09 deg/d
Q 3.090851391348143 2.8044e-08 au
  Orbit Determination Parameters
   # obs. used (total)      165  
   data-arc span      7159 days (19.60 yr)  
   first obs. used      1999-10-03  
   last obs. used      2019-05-10  
   planetary ephem.      DE431  
   SB-pert. ephem.      SB431-N16  
   condition code      0  
   norm. resid. RMS      .58757  
   source      ORB  
   producer      Otto Matic  
   solution date      2020-Feb-25 23:00:12  

Additional Information
 Earth MOID = 1.15827 au 
 Jupiter MOID = 2.37098 au 
 T_jup = 3.343 
[ show covariance matrix ]

Ephemeris | Orbit Diagram | Orbital Elements | Mission Design | Physical Parameters | Discovery Circumstances ]

Physical Parameter Table
Parameter Symbol Value Units Sigma Reference Notes
absolute magnitude H 16.6   n/a MPO437458  

344105 (1999 TD150)          Discovered 1999-Oct-07 by LINEAR at Socorro
Reference: 20121128/Numbers.arcLast Updated: 2012-12-03
Ephemeris | Orbit Diagram | Orbital Elements | Mission Design | Physical Parameters | Discovery Circumstances ]
ABOUT SSD CREDITS/AWARDS PRIVACY/COPYRIGHT GLOSSARY LINKS
FirstGov 2020-Aug-04 21:13 UT
(server date/time)  
NASA Home Page
Site Manager:   Ryan S. Park
Webmaster  Alan B. Chamberlin